Date String (YYYY-MM-DD hh:mm:ss) UTC,Instrument flags,Ambient pressure (hPa),Sample flow (lpm),Bypass flow (lpm),Sample temperature (°C),Ambient temperature (°C),ASC tube jacket temperature (°C),LED temperature (°C),Box temperature (°C),Sample RH (%),Span deviation,Mass concentration (μg/m³),Mass concentration (μg/m³),Mass concentration (μg/m³)
DateTimeUTC,F1_M11,P_M11,Q1_M11,Q2_M11,T1_M11,T2_M11,T3_M11,T4_M11,T5_M11,U1_M11,ZSPAN_M11,X2_M11,X0_M11,X1_M11
2022-05-10 10:00:00,,0824.4,5.00,0.00,26.8,26.2,00.0,35.6,28.7,14.1,0000.0,0005.10,0016.21,0002.03
2022-05-10 10:01:00,,0824.4,5.01,0.00,26.8,26.3,00.0,35.7,28.8,13.9,0000.0,0005.09,0016.16,0002.02
2022-05-10 10:02:00,,0824.6,4.99,0.00,26.9,26.3,00.0,35.7,28.8,14.1,0000.0,0005.12,0016.22,0002.01
2022-05-10 10:03:00,,0824.6,5.00,0.00,26.9,26.3,00.0,35.7,28.8,13.7,0000.0,0005.09,0016.83,0002.01
2022-05-10 10:04:00,,0824.6,4.99,0.00,26.9,26.3,00.0,35.7,28.8,13.5,0000.0,0005.14,0017.35,0001.99
2022-05-10 10:05:00,,0824.6,5.00,0.00,26.9,26.3,00.0,35.7,28.8,13.5,0000.0,0005.18,0017.11,0002.01
2022-05-10 10:06:00,,0824.6,5.01,0.00,26.9,26.3,00.0,35.7,28.8,13.5,0000.0,0005.25,0016.92,0002.02
2022-05-10 10:07:00,,0824.6,4.99,0.00,26.9,26.3,00.0,35.7,28.8,13.3,0000.0,0005.28,0017.85,0002.01
2022-05-10 10:08:00,,0824.6,5.01,0.00,26.9,26.3,00.0,35.7,28.8,13.4,0000.0,0005.30,0018.00,0002.01
2022-05-10 10:09:00,,0824.6,5.00,0.00,26.9,26.3,00.0,35.8,28.8,13.3,0000.0,0005.31,0018.10,0001.99
2022-05-10 10:10:00,,0824.6,5.00,0.00,26.9,26.3,00.0,35.8,28.8,13.3,0000.0,0005.31,0017.88,0001.98
2022-05-10 10:11:00,,0824.6,4.99,0.00,26.9,26.3,00.0,35.8,28.8,13.4,0000.0,0005.37,0018.00,0001.99
2022-05-10 10:12:00,,0824.6,5.01,0.00,26.9,26.3,00.0,35.8,28.8,13.4,0000.0,0005.39,0018.44,0002.00
2022-05-10 10:13:00,,0824.6,5.00,0.00,26.9,26.2,00.0,35.8,28.8,13.4,0000.0,0005.38,0018.37,0002.02
2022-05-10 10:14:00,,0824.6,5.00,0.00,26.9,26.3,00.0,35.8,28.8,13.4,0000.0,0005.44,0018.47,0002.03
2022-05-10 10:15:00,,0824.6,4.99,0.00,26.9,26.3,00.0,35.8,28.8,13.4,0000.0,0005.52,0018.86,0002.07
2022-05-10 10:16:00,,0824.6,5.01,0.00,26.9,26.3,00.0,35.8,28.8,13.4,0000.0,0005.56,0018.53,0002.07
2022-05-10 10:17:00,,0824.7,5.01,0.00,26.9,26.3,00.0,35.8,28.8,13.4,0000.0,0005.55,0018.22,0002.07
2022-05-10 10:18:00,,0824.7,4.99,0.00,26.9,26.3,00.0,35.8,28.8,13.5,0000.0,0005.53,0018.42,0002.11
2022-05-10 10:19:00,,0824.7,5.00,0.00,26.9,26.3,00.0,35.8,28.8,13.5,0000.0,0005.52,0018.34,0002.12
2022-05-10 10:20:00,,0824.7,4.99,0.00,26.9,26.3,00.0,35.8,28.8,13.4,0000.0,0005.51,0018.51,0002.12
2022-05-10 10:21:00,,0824.9,5.00,0.00,26.9,26.3,00.0,35.8,28.8,13.3,0000.0,0005.49,0018.88,0002.13
2022-05-10 10:22:00,,0824.9,5.00,0.00,27.0,26.3,00.0,35.8,28.8,13.4,0000.0,0005.46,0018.45,0002.14
2022-05-10 10:23:00,,0824.9,5.00,0.00,27.0,26.3,00.0,35.9,28.9,13.7,0000.0,0005.44,0018.73,0002.14
2022-05-10 10:24:00,,0824.9,5.00,0.00,27.0,26.3,00.0,35.9,28.9,13.7,0000.0,0005.48,0020.25,0002.14
2022-05-10 10:25:00,,0824.9,5.01,0.00,27.0,26.3,00.0,35.9,28.9,13.6,0000.0,0005.47,0020.22,0002.14
2022-05-10 10:26:00,,0824.9,4.99,0.00,27.0,26.3,00.0,35.9,28.9,13.9,0000.0,0005.42,0019.91,0002.13
2022-05-10 10:27:00,,0824.9,4.99,0.00,27.0,26.3,00.0,35.9,28.9,14.1,0000.0,0005.42,0020.62,0002.13
2022-05-10 10:28:00,,0824.9,5.00,0.00,27.0,26.3,00.0,35.9,28.9,13.8,0000.0,0005.43,0021.03,0002.12
2022-05-10 10:29:00,,0824.9,5.01,0.00,27.0,26.3,00.0,35.9,28.9,14.1,0000.0,0005.45,0021.02,0002.11
2022-05-10 10:30:00,,0824.9,4.99,0.00,27.0,26.4,00.0,35.9,28.9,13.9,0000.0,0005.37,0020.36,0002.09
2022-05-10 10:31:00,,0824.9,4.99,0.00,27.1,26.4,00.0,35.9,28.9,13.8,0000.0,0005.35,0020.55,0002.10
2022-05-10 10:32:00,,0824.9,5.00,0.00,27.1,26.4,00.0,35.9,28.9,13.7,0000.0,0005.37,0020.38,0002.11
2022-05-10 10:33:00,,0824.9,5.01,0.00,27.1,26.4,00.0,35.9,29.0,13.8,0000.0,0005.36,0019.91,0002.12
2022-05-10 10:34:00,,0824.9,4.98,0.00,27.1,26.4,00.0,35.9,29.0,13.8,0000.0,0005.36,0019.03,0002.10
2022-05-10 10:35:00,,0824.9,5.01,0.00,27.1,26.4,00.0,36.0,29.0,14.2,0000.0,0005.39,0018.11,0002.10
2022-05-10 10:36:00,,0824.9,4.99,0.00,27.1,26.4,00.0,36.0,29.0,14.8,0000.0,0005.36,0017.96,0002.11
2022-05-10 10:37:00,,0824.9,5.00,0.00,27.1,26.4,00.0,36.0,29.0,14.2,0000.0,0005.29,0017.09,0002.12
2022-05-10 10:38:00,,0824.9,4.99,0.00,27.1,26.4,00.0,36.0,29.0,14.0,0000.0,0005.25,0016.21,0002.11
2022-05-10 10:39:00,,0824.9,5.01,0.00,27.2,26.4,00.0,36.0,29.0,13.8,0000.0,0005.25,0015.66,0002.13
2022-05-10 10:40:00,,0824.9,5.00,0.00,27.2,26.4,00.0,36.0,29.1,13.7,0000.0,0005.20,0014.60,0002.13
2022-05-10 10:41:00,,0825.0,5.00,0.00,27.2,26.4,00.0,36.0,29.1,13.5,0000.0,0005.18,0014.57,0002.13
2022-05-10 10:42:00,,0825.1,4.99,0.00,27.2,26.4,00.0,36.0,29.1,13.6,0000.0,0005.18,0014.54,0002.13
2022-05-10 10:43:00,,0825.1,5.01,0.00,27.2,26.4,00.0,36.0,29.1,13.6,0000.0,0005.23,0014.13,0002.13
2022-05-10 10:44:00,,0825.1,5.00,0.00,27.2,26.4,00.0,36.1,29.1,13.8,0000.0,0005.24,0014.18,0002.11
2022-05-10 10:45:00,,0825.1,4.99,0.00,27.2,26.4,00.0,36.1,29.1,14.3,0000.0,0005.19,0014.99,0002.12
2022-05-10 10:46:00,,0825.2,5.01,0.00,27.2,26.4,00.0,36.1,29.1,13.8,0000.0,0005.08,0014.73,0002.12
2022-05-10 10:47:00,,0825.2,5.00,0.00,27.2,26.4,00.0,36.1,29.1,13.6,0000.0,0005.05,0014.49,0002.11
2022-05-10 10:48:00,,0825.2,4.99,0.00,27.2,26.4,00.0,36.1,29.1,13.6,0000.0,0005.05,0015.43,0002.09
2022-05-10 10:49:00,,0825.2,5.01,0.00,27.3,26.4,00.0,36.1,29.1,13.7,0000.0,0005.08,0016.77,0002.07
2022-05-10 10:50:00,,0825.2,5.01,0.00,27.3,26.4,00.0,36.1,29.1,13.7,0000.0,0005.04,0016.93,0002.03
2022-05-10 10:51:00,,0825.2,4.98,0.00,27.3,26.4,00.0,36.1,29.1,13.8,0000.0,0005.06,0017.19,0002.02
2022-05-10 10:52:00,,0825.2,5.00,0.00,27.3,26.4,00.0,36.1,29.1,13.9,0000.0,0005.09,0017.70,0002.02
2022-05-10 10:53:00,,0825.2,5.00,0.00,27.3,26.4,00.0,36.1,29.1,13.8,0000.0,0005.11,0018.28,0002.02
2022-05-10 10:54:00,,0825.2,5.00,0.00,27.3,26.4,00.0,36.1,29.1,13.7,0000.0,0005.08,0018.26,0002.01
2022-05-10 10:55:00,,0825.2,5.00,0.00,27.3,26.5,00.0,36.1,29.1,13.6,0000.0,0005.14,0018.46,0002.01
2022-05-10 10:56:00,,0825.2,5.00,0.00,27.3,26.5,00.0,36.1,29.1,13.5,0000.0,0005.21,0018.05,0002.00
2022-05-10 10:57:00,,0825.2,5.00,0.00,27.3,26.5,00.0,36.2,29.1,13.4,0000.0,0005.25,0017.45,0001.99
2022-05-10 10:58:00,,0825.2,5.00,0.00,27.3,26.5,00.0,36.2,29.1,13.3,0000.0,0005.33,0017.76,0001.99
2022-05-10 10:59:00,,0825.2,5.01,0.00,27.3,26.5,00.0,36.2,29.1,13.5,0000.0,0005.38,0017.10,0001.98
